Other Surface Observations
Issued by NWS Tucson, AZ

Home | Current Version | Previous Version | Text Only | Print | Product List | Glossary On
Versions: 1 2 3 4 5 6 7 8 9 10 11 12 13 14 15 16 17 18 19 20 21 22 23 24 25 26 27 28 29 30 31 32 33 34 35 36 37 38 39 40 41 42 43 44 45 46 47 48 49 50
211
SXUS55 KTWC 212245
OSOTWC

WEATHER ROUNDUP FOR SOUTHEAST ARIZONA
NATIONAL WEATHER SERVICE TUCSON AZ
345 PM MST MON MAY 21 2018

AZZ504>506-514-212345-
LOCATION       SKY/WX    TMP DP  RH WIND       PRES   REMARKS
TUCSON         SUNNY     92   2   3 SW13G28   29.77F
DAVIS-MONTHAN  SUNNY     95   8   4 SW16G23   29.75F
CHILDRENS PARK N/A      N/A N/A   4 SW8               PIMA CO DEQ
ALVERNON/22ND  N/A       93 N/A N/A SW10              PIMA CO DEQ
CHERRY/GLENN   N/A      N/A N/A N/A N/A               PIMA CO DEQ
TANGERINE      N/A       93 N/A N/A SW9               PIMA CO DEQ
CONTL RANCH    N/A       95   9   4 SW12              PIMA CO DEQ
GRANT/1ST      N/A       92  11   5 S10               PIMA CO DEQ
CRAYCROFT/22ND N/A       93   7   4 SW11              PIMA CO DEQ
GOLFLINKS/KOLB N/A      N/A N/A N/A N/A               PIMA CO DEQ
AJO/12TH       N/A       93  16   6 S11               PIMA CO DEQ
FAIRGROUNDS    N/A       91 N/A N/A SW17              PIMA CO DEQ
SAGUARO        N/A       95  -4   2 SW6G13            *SABINO CYN
SAN CARLOS     N/A       94   3   3 SW15G20           *SAN CARLOS
GREEN VALLEY   N/A       91  11   5 S12               PIMA CO DEQ
HORSE CAMP CYN N/A       89  10   5 SW13G27           *ARAVAIPA CYN
RINCON MTNS    N/A       76   1   5 SW4G14            *NR MANNING CAMP
$$

AZZ509>511-212345-
LOCATION       SKY/WX    TMP DP  RH WIND       PRES   REMARKS
SAFFORD        SUNNY     95   5   3 SW17G29   29.74F
STRAY HORSE    N/A       75  13   9 SE5G19            *
TRAIL CABIN    N/A       80  11   7 S10G26            *N OF GRANVILLE
BLACK HILLS    N/A       95   9   4 SW8G21            *N OF FT THOMAS
DRY LAKE       N/A       75   4   6 S15G27            *NATANES MTNS
NOON CREEK     N/A       87  16   7 SW6G22            *PINALENO MTNS
COLUMBINE      N/A       61   8  12 S7G19             *PINALENO MTNS
GUTHRIE        N/A       86  12   6 SW14G29           *SW OF GUTHRIE
$$

AZZ502-503-513-212345-
LOCATION       SKY/WX    TMP DP  RH WIND       PRES   REMARKS
NOGALES        SUNNY     87   6   4 S15G32    29.87F
SELLS          N/A       91  19   7 SW13G23           *
SASABE         N/A       88  23   9 SW17G27           *ALTAR VLY
HOPKINS        N/A       75  10   8 S9G23             *SANTA RITA MTNS
CARR CYN       N/A       85  14   7 W6G17             *W OF HEREFORD
$$

AZZ507-508-512-212345-
LOCATION       SKY/WX    TMP DP  RH WIND       PRES   REMARKS
SIERRA VISTA   SUNNY     86   5   4 S20G26    29.91
DOUGLAS        SUNNY     87  11   6 SW12G31   29.87F
EMPIRE MTNS    N/A       84   2   4 SW16G28           *LAS CIENEGAS NCA
MULESHOE RANCH N/A       89  10   5 S10G19            *PRESERVE
HEADQUARTERS   N/A       84   6   5 SW8G20            *CHIRICAHUA MTNS
$$

.............................NOTES.............................
THIS IS AN AUTOMATED COLLECTIVE WITH MINIMAL QUALITY CONTROL.
PIMA CO DEQ SITES HAVE NONSTANDARD WIND SENSOR HEIGHTS.
PIMA CO DEQ SITES DO NOT REPORT WIND GUSTS.
* INDICATES WIND SENSORS LOCATED AT 20 FEET INSTEAD OF 33 FEET.
..............................KEY..............................
SKY/WX - SKY CONDITION/WEATHER
TMP    - TEMPERATURE IN FAHRENHEIT
DP     - DEWPOINT IN FAHRENHEIT
RH     - RELATIVE HUMIDITY IN PERCENT
WIND   - DIRECTION AND SPEED IN MILES PER HOUR (MPH)
VRB    - VARIABLE WIND DIRECTION
PRES   - MEAN SEA LEVEL PRESSURE IN INCHES OF MERCURY
         F - FALLING PRESSURE   R - RISING PRESSURE
         S - STEADY PRESSURE
VSB    - VISIBILITY IN MILES
HX     - HEAT INDEX IN FAHRENHEIT
WCI    - WIND CHILL INDEX IN FAHRENHEIT
N/A    - NOT AVAILABLE
AFB    - AIR FORCE BASE
         DAVIS-MONTHAN IS DAVIS-MONTHAN AIR FORCE BASE
CYN    - CANYON
MTNS   - MOUNTAINS
NCA    - NATIONAL CONSERVATION AREA
NR     - NEAR
VLY    - VALLEY
CONTL  - CONTINENTAL
PIMA CO DEQ - PIMA COUNTY DEPT OF ENVIRONMENTAL QUALITY



USA.gov is the U.S. government's official web portal to all federal, state and local government web resources and services.